FW3274 Weather Reports


time (UTC)temp
F
wind
direction
speed
knots
gust
knots
rain 1hr
in
rain 24hr
in
rain mn
in
humidity
%
barometer
mb
20260906090111 85 84 0.9 5.2 0.00 0.00 0.00 44 1016.8
20260906084556 85 74 0.9 8.7 0.00 0.00 0.00 47 1016.8
20260906083050 84 35 0.9 9.6 0.00 0.00 0.00 47 1016.7
20260906081552 84 67 2.6 7.8 0.00 0.00 0.00 47 1016.7
20260906080048 82 72 1.7 8.7 0.00 0.00 0.00 50 1016.7
20260906074546 82 68 1.7 9.6 0.00 0.00 0.00 49 1016.7
20260906073050 82 74 0.0 6.1 0.00 0.00 0.00 54 1016.5
20260906071537 81 63 0.0 6.1 0.00 0.00 0.00 55 1016.4
20260906070039 80 82 1.7 7.8 0.00 0.00 0.00 54 1016.4
20260906064532 79 74 0.9 5.2 0.00 0.00 0.00 56 1016.4
20260906063031 79 320 0.9 7.0 0.00 0.00 0.00 56 1016.3
20260906061529 79 82 0.0 5.2 0.00 0.00 0.00 56 1016.1
20260906060025 78 73 0.0 1.7 0.00 0.00 0.00 59 1015.9
20260906054524 76 74 0.0 0.9 0.00 0.00 0.00 62 1015.7
20260906053026 75 73 0.0 3.5 0.00 0.00 0.00 62 1015.4
20260906051521 75 92 0.0 2.6 0.00 0.00 0.00 63 1015.3
20260906050017 74 87 0.0 2.6 0.00 0.00 0.00 64 1015.1
20260906044516 74 81 0.0 3.5 0.00 0.00 0.00 64 1015.0
20260906043021 74 68 0.0 0.9 0.00 0.00 0.00 64 1015.0
20260906041514 74 86 0.0 0.9 0.00 0.00 0.00 64 1014.9
20260906040013 74 67 0.0 1.7 0.00 0.00 0.00 65 1014.9
20260906034516 75 85 0.0 0.9 0.00 0.00 0.00 65 1014.8
20260906033011 75 85 0.0 0.9 0.00 0.00 0.00 65 1014.7
20260906031511 75 75 0.0 0.0 0.00 0.00 0.00 65 1014.7
20260906030009 75 77 0.0 0.0 0.00 0.00 0.00 65 1014.6
20260906024509 75 77 0.0 0.0 0.00 0.00 0.00 64 1014.6
20260906023008 74 74 0.0 0.9 0.00 0.00 0.00 65 1014.6
20260906021507 74 86 0.0 0.0 0.00 0.00 0.00 66 1014.5
20260906020004 75 86 0.0 0.0 0.00 0.00 0.00 65 1014.4
20260906014505 75 86 0.0 0.0 0.00 0.00 0.00 65 1014.4
20260906013004 75 86 0.0 0.0 0.00 0.00 0.00 65 1014.2
20260906011502 75 86 0.0 0.0 0.00 0.00 0.00 65 1014.1
20260906010002 75 86 0.0 0.0 0.00 0.00 0.00 67 1014.0
20260906004501 75 86 0.0 0.0 0.00 0.00 0.00 68 1014.1
20260906003100 75 86 0.0 0.0 0.00 0.00 0.00 68 1014.1
20260906001559 75 86 0.0 0.0 0.00 0.00 0.00 68 1014.1
20260906000106 76 86 0.0 0.0 0.00 0.00 0.00 68 1014.1
20260905234601 76 86 0.0 0.0 0.00 0.00 0.00 68 1014.0
20260905233056 76 86 0.0 0.0 0.00 0.00 0.00 69 1013.9
20260905231554 77 86 0.0 0.0 0.00 0.00 0.00 68 1013.9
20260905230050 77 78 0.0 0.0 0.00 0.00 0.00 72 1013.8
20260905224602 77 78 0.0 0.0 0.00 0.00 0.00 72 1013.8
20260905223049 77 78 0.0 0.0 0.00 0.00 0.00 73 1013.7
20260905221546 77 81 0.0 0.9 0.00 0.00 0.00 75 1013.7
20260905220044 77 76 0.0 0.0 0.00 0.00 0.00 73 1013.6
20260905214545 77 73 0.0 0.9 0.00 0.00 0.00 68 1013.4
20260905213042 78 72 0.0 0.0 0.00 0.00 0.00 64 1013.2
20260905211542 78 80 0.0 1.7 0.00 0.00 0.00 61 1013.2
20260905210039 79 80 0.0 0.0 0.00 0.00 0.00 59 1013.0
20260905204538 79 61 0.0 0.0 0.00 0.00 0.00 59 1012.8
20260905203038 78 52 0.0 0.0 0.00 0.00 0.00 60 1012.8
20260905201538 79 52 0.0 0.0 0.00 0.00 0.00 60 1012.7
20260905200045 79 52 0.0 0.0 0.00 0.00 0.00 60 1012.5
20260905194534 80 51 0.0 0.0 0.00 0.00 0.00 59 1012.4
20260905193032 80 46 0.0 0.0 0.00 0.00 0.00 58 1012.2
20260905191536 80 42 0.0 0.0 0.00 0.00 0.00 58 1011.9
20260905190044 81 33 0.0 0.0 0.00 0.00 0.00 57 1011.8
20260905184527 82 33 0.0 0.0 0.00 0.00 0.00 57 1011.5
20260905183025 82 76 0.0 0.0 0.00 0.00 0.00 58 1011.3
20260905181526 83 76 0.0 0.0 0.00 0.00 0.00 56 1011.1
20260905180024 84 76 0.0 0.0 0.00 0.00 0.00 55 1011.0
20260905174524 85 76 0.0 0.0 0.00 0.00 0.00 53 1010.7
20260905173024 86 76 0.0 0.0 0.00 0.00 0.00 52 1010.5
20260905171523 87 74 0.0 0.0 0.00 0.00 0.00 50 1010.4
20260905170023 88 90 0.0 0.9 0.00 0.00 0.00 49 1010.2
20260905164529 89 69 0.0 2.6 0.00 0.00 0.00 47 1010.1
20260905163022 89 93 0.0 0.9 0.00 0.00 0.00 46 1010.0
20260905161521 89 85 0.0 0.9 0.00 0.00 0.00 45 1009.9
20260905160021 90 104 0.0 3.5 0.00 0.00 0.00 45 1009.9
20260905154521 91 70 0.0 1.7 0.00 0.00 0.00 43 1009.8
20260905153024 91 88 0.0 0.0 0.00 0.00 0.00 44 1009.8
20260905151520 91 86 0.0 0.9 0.00 0.00 0.00 43 1009.7
20260905150021 90 60 0.0 1.7 0.00 0.00 0.00 43 1009.7
20260905144520 91 86 0.0 2.6 0.00 0.00 0.00 42 1009.6
20260905143022 92 97 0.0 0.9 0.00 0.00 0.00 43 1009.6
20260905141521 91 95 0.0 2.6 0.00 0.00 0.00 44 1009.8
20260905140015 92 67 0.0 2.6 0.00 0.00 0.00 43 1009.7
20260905134517 91 90 0.0 0.9 0.00 0.00 0.00 43 1009.8
20260905133020 91 88 0.0 1.7 0.00 0.00 0.00 43 1009.9
20260905131524 91 13 0.0 0.0 0.00 0.00 0.00 43 1010.1
20260905130017 90 74 0.0 0.9 0.00 0.00 0.00 48 1010.2
20260905124509 89 72 0.0 2.6 0.00 0.00 0.00 44 1010.3
20260905123008 90 219 0.0 0.9 0.00 0.00 0.00 43 1010.4
20260905121506 89 78 0.0 1.7 0.00 0.00 0.00 45 1010.6
20260905120006 90 204 0.0 0.0 0.00 0.00 0.00 47 1010.9
20260905114505 89 101 0.0 0.9 0.00 0.00 0.00 47 1010.8
20260905113010 89 92 0.0 0.9 0.00 0.00 0.00 47 1010.8
20260905111502 89 73 0.0 0.9 0.00 0.00 0.00 48 1010.9
20260905110001 88 80 0.0 0.0 0.00 0.00 0.00 45 1010.9
20260905104559 88 79 0.0 0.9 0.00 0.00 0.00 48 1011.0
20260905103058 87 85 0.0 1.7 0.00 0.00 0.00 49 1011.0
20260905101557 87 64 0.0 0.0 0.00 0.00 0.00 52 1011.0
20260905100053 85 66 0.0 0.9 0.00 0.00 0.00 52 1011.2
20260905094553 84 75 0.0 0.0 0.00 0.00 0.00 56 1011.1
20260905093053 83 73 0.0 0.0 0.00 0.00 0.00 57 1011.3
20260905091553 83 75 0.0 0.0 0.00 0.00 0.00 60 1011.3